Find Starlink 32583

NORAD ID: 61955 Int'l Des: 2024-209 Owner: SPXS Country: US Constellation: starlink operational
LEOCIRCULAR

現在のビュー

3D地球を読み込み中...

About Starlink 32583

Starlink 32583 (NORAD 61955) is a starlink constellation satellite (v2 mini) launched Nov 14, 2024 by SPXS of US. It operates in LEO, CIRCULAR orbit with a mass of 730.00 kg.

次回通過

Passes for default location (London). Set your location on the main map for personalized predictions.

高度履歴

Loading altitude history...

軌道要素

1 61955U 24209S 26236.83365478 .00020059 00000-0 60295-3 0 9997
2 61955 53.1585 72.6268 0001356 92.9889 267.1269 15.34413935100772
Epoch: Aug 24, 2026 • Age: 24 hours

現在のステータス

高度 476.7 km
遠地点 / 近地点 N/A
速度 7.63 km/s
衛星直下点 -40.67°S, 6.47°E
打ち上げ日 Nov 14, 2024
運用期間 1.7 years
タイプ internet

技術仕様

分類 Payload
質量 730.00 kg
乾燥質量 700.00 kg
総質量 730.00 kg
長さ 0.30 m
直径 4.10 m
スパン 29.00 m
形状 Box + pan
製造者 SPXS
バスタイプ Starlink V2M
フェーズステータス In Orbit
所有者/国 SPXS/US

Most Searched